AVA9252 SKBO-SKRG

Flight info

Callsign AVA9252
Flight time 0h 27m
Altitude 24000
Route VASIL4U VASIL W36 NIRSO NIRSO3C
Aircraft A20N/M-SDE2E3FGHIRWXY/LB1

Departure

Time 2026-05-09 11:22
Airport El Dorado International Airport (SKBO)

Arrival

Time 2026-05-09 11:50
Airport Jose Maria Córdova International Airport (SKRG)
Time Latitude Longitude Altitude Speed Heading
2026-05-09 11:01 4.69813 -74.14556 8361 ft 0 kts 32°
2026-05-09 11:09 4.69800 -74.14563 8361 ft 2 kts 24°
2026-05-09 11:09 4.69784 -74.14569 8361 ft 2 kts 13°
2026-05-09 11:09 4.69768 -74.14571 8361 ft 2 kts 357°
2026-05-09 11:10 4.69752 -74.14568 8361 ft 2 kts 338°
2026-05-09 11:10 4.69737 -74.14561 8361 ft 2 kts 321°
2026-05-09 11:10 4.69725 -74.14549 8362 ft 2 kts 310°
2026-05-09 11:10 4.69718 -74.14541 8361 ft 1 kts 307°
2026-05-09 11:11 4.69717 -74.14539 8361 ft 0 kts 307°
2026-05-09 11:13 4.69721 -74.14545 8361 ft 3 kts 307°
2026-05-09 11:13 4.69738 -74.14568 8362 ft 6 kts 307°
2026-05-09 11:13 4.69768 -74.14607 8361 ft 9 kts 307°
2026-05-09 11:14 4.69810 -74.14662 8361 ft 11 kts 307°
2026-05-09 11:14 4.69850 -74.14734 8361 ft 10 kts 267°
2026-05-09 11:14 4.69797 -74.14775 8361 ft 11 kts 213°
2026-05-09 11:14 4.69756 -74.14840 8361 ft 12 kts 281°
2026-05-09 11:15 4.69821 -74.14859 8361 ft 11 kts 22°
2026-05-09 11:15 4.69887 -74.14887 8361 ft 12 kts 306°
2026-05-09 11:15 4.69949 -74.14968 8361 ft 17 kts 308°
2026-05-09 11:15 4.70028 -74.15071 8361 ft 20 kts 308°
2026-05-09 11:16 4.70111 -74.15187 8361 ft 21 kts 302°
2026-05-09 11:16 4.70205 -74.15307 8361 ft 22 kts 308°
2026-05-09 11:16 4.70303 -74.15434 8361 ft 24 kts 308°
2026-05-09 11:16 4.70405 -74.15566 8361 ft 25 kts 309°
2026-05-09 11:17 4.70513 -74.15700 8361 ft 25 kts 309°
2026-05-09 11:17 4.70627 -74.15840 8360 ft 26 kts 308°
2026-05-09 11:17 4.70738 -74.15986 8361 ft 27 kts 308°
2026-05-09 11:17 4.70852 -74.16136 8360 ft 27 kts 307°
2026-05-09 11:18 4.70967 -74.16289 8360 ft 28 kts 306°
2026-05-09 11:18 4.71085 -74.16445 8360 ft 28 kts 307°
2026-05-09 11:18 4.71204 -74.16601 8360 ft 28 kts 307°
2026-05-09 11:18 4.71294 -74.16738 8360 ft 17 kts 275°
2026-05-09 11:19 4.71266 -74.16784 8360 ft 7 kts 251°
2026-05-09 11:19 4.71249 -74.16837 8360 ft 8 kts 254°
2026-05-09 11:19 4.71224 -74.16875 8360 ft 7 kts 217°
2026-05-09 11:19 4.71221 -74.16877 8360 ft 0 kts 212°
2026-05-09 11:20 4.71209 -74.16884 8360 ft 4 kts 215°
2026-05-09 11:20 4.71174 -74.16900 8360 ft 7 kts 185°
2026-05-09 11:20 4.71112 -74.16893 8359 ft 11 kts 170°
2026-05-09 11:21 4.71030 -74.16881 8359 ft 13 kts 169°
2026-05-09 11:21 4.71002 -74.16857 8359 ft 0 kts 118°
2026-05-09 11:21 4.70955 -74.16791 8359 ft 41 kts 126°
2026-05-09 11:22 4.70642 -74.16377 8361 ft 105 kts 127°
2026-05-09 11:22 4.70091 -74.15649 8360 ft 154 kts 128°
2026-05-09 11:22 4.69375 -74.14718 8646 ft 173 kts 124°
2026-05-09 11:22 4.68648 -74.13755 9316 ft 174 kts 124°
2026-05-09 11:23 4.67934 -74.12785 9955 ft 172 kts 126°
2026-05-09 11:23 4.67209 -74.11794 10431 ft 183 kts 126°
2026-05-09 11:23 4.66176 -74.10948 10634 ft 208 kts 158°
2026-05-09 11:23 4.64658 -74.10829 10886 ft 236 kts 190°
2026-05-09 11:24 4.63132 -74.11611 11214 ft 262 kts 220°
2026-05-09 11:24 4.62047 -74.13178 11543 ft 287 kts 248°
2026-05-09 11:24 4.61716 -74.15183 12160 ft 299 kts 267°
2026-05-09 11:24 4.61680 -74.17346 12474 ft 323 kts 268°
2026-05-09 11:25 4.61556 -74.19689 12738 ft 347 kts 264°
2026-05-09 11:25 4.61262 -74.22155 13003 ft 368 kts 261°
2026-05-09 11:25 4.60835 -74.24715 13588 ft 375 kts 259°
2026-05-09 11:25 4.60351 -74.27296 13859 ft 377 kts 258°
2026-05-09 11:26 4.59977 -74.29886 13914 ft 376 kts 265°
2026-05-09 11:26 4.59849 -74.32502 13896 ft 374 kts 268°
2026-05-09 11:26 4.59782 -74.35119 13879 ft 379 kts 268°
2026-05-09 11:26 4.59700 -74.37754 13868 ft 375 kts 268°
2026-05-09 11:27 4.59660 -74.40331 13978 ft 376 kts 272°
2026-05-09 11:27 4.59966 -74.42944 14563 ft 378 kts 280°
2026-05-09 11:27 4.60407 -74.45539 15218 ft 378 kts 279°
2026-05-09 11:27 4.60826 -74.48149 15520 ft 380 kts 279°
2026-05-09 11:28 4.61238 -74.50762 15615 ft 380 kts 279°
2026-05-09 11:28 4.61652 -74.53378 15671 ft 380 kts 279°
2026-05-09 11:28 4.62069 -74.55999 15671 ft 380 kts 279°
2026-05-09 11:28 4.62487 -74.58615 15670 ft 380 kts 279°
2026-05-09 11:29 4.62910 -74.61247 15846 ft 384 kts 279°
2026-05-09 11:29 4.63333 -74.63887 16612 ft 383 kts 279°
2026-05-09 11:29 4.63758 -74.66527 17366 ft 384 kts 279°
2026-05-09 11:29 4.64185 -74.69184 18060 ft 387 kts 279°
2026-05-09 11:30 4.64615 -74.71861 18682 ft 390 kts 279°
2026-05-09 11:30 4.65048 -74.74556 19257 ft 394 kts 279°
2026-05-09 11:30 4.65486 -74.77281 19812 ft 397 kts 279°
2026-05-09 11:30 4.65927 -74.80029 20378 ft 401 kts 279°
2026-05-09 11:31 4.66496 -74.82778 20917 ft 405 kts 288°
2026-05-09 11:31 4.67721 -74.85323 21444 ft 409 kts 304°
2026-05-09 11:31 4.69598 -74.87474 21963 ft 413 kts 319°
2026-05-09 11:31 4.71929 -74.89180 22491 ft 417 kts 326°
2026-05-09 11:32 4.74348 -74.90800 23007 ft 420 kts 326°
2026-05-09 11:32 4.76800 -74.92430 23526 ft 424 kts 326°
2026-05-09 11:32 4.79259 -74.94075 23861 ft 426 kts 326°
2026-05-09 11:32 4.81712 -74.95728 23987 ft 424 kts 325°
2026-05-09 11:33 4.84156 -74.97383 24032 ft 424 kts 325°
2026-05-09 11:33 4.86600 -74.99044 24035 ft 424 kts 325°
2026-05-09 11:33 4.91459 -75.02348 24034 ft 424 kts 325°
2026-05-09 11:34 4.93906 -75.04013 24035 ft 424 kts 325°
2026-05-09 11:34 4.96348 -75.05674 24035 ft 424 kts 325°
2026-05-09 11:34 4.98791 -75.07335 24070 ft 424 kts 325°
2026-05-09 11:34 5.01231 -75.08993 24059 ft 424 kts 325°
2026-05-09 11:35 5.03674 -75.10656 24065 ft 424 kts 325°
2026-05-09 11:35 5.06120 -75.12320 24078 ft 425 kts 325°
2026-05-09 11:35 5.08564 -75.13983 24087 ft 424 kts 325°
2026-05-09 11:35 5.11011 -75.15647 24095 ft 424 kts 325°
2026-05-09 11:36 5.13453 -75.17313 24103 ft 423 kts 324°
2026-05-09 11:36 5.15750 -75.19157 24097 ft 424 kts 317°
2026-05-09 11:36 5.17805 -75.21260 24115 ft 421 kts 310°
2026-05-09 11:36 5.19735 -75.23467 24120 ft 422 kts 310°
2026-05-09 11:37 5.21686 -75.25678 24125 ft 423 kts 311°
2026-05-09 11:37 5.23635 -75.27882 24126 ft 421 kts 310°
2026-05-09 11:37 5.25576 -75.30075 24126 ft 420 kts 310°
2026-05-09 11:37 5.27519 -75.32271 24093 ft 420 kts 311°
2026-05-09 11:38 5.29466 -75.34474 23766 ft 420 kts 310°
2026-05-09 11:38 5.31425 -75.36666 23029 ft 422 kts 313°
2026-05-09 11:38 5.33681 -75.38517 21964 ft 430 kts 327°
2026-05-09 11:38 5.36396 -75.39816 21073 ft 433 kts 341°
2026-05-09 11:39 5.39371 -75.40432 20386 ft 430 kts 354°
2026-05-09 11:39 5.42346 -75.40579 19717 ft 426 kts 358°
2026-05-09 11:39 5.45264 -75.40617 19095 ft 422 kts 359°
2026-05-09 11:40 5.51096 -75.40774 17732 ft 415 kts 357°
2026-05-09 11:40 5.53966 -75.40907 17031 ft 411 kts 357°
2026-05-09 11:40 5.56801 -75.41056 16162 ft 404 kts 357°
2026-05-09 11:40 5.59595 -75.41211 15259 ft 400 kts 357°
2026-05-09 11:41 5.62362 -75.41368 14364 ft 396 kts 357°
2026-05-09 11:41 5.65100 -75.41523 13519 ft 391 kts 357°
2026-05-09 11:41 5.66916 -75.41625 13150 ft 382 kts 357°
2026-05-09 11:41 5.69520 -75.41771 12888 ft 368 kts 358°
2026-05-09 11:42 5.72027 -75.41911 12768 ft 352 kts 358°
2026-05-09 11:42 5.74409 -75.42044 12752 ft 334 kts 358°
2026-05-09 11:42 5.76673 -75.42170 12747 ft 318 kts 358°
2026-05-09 11:42 5.78801 -75.42189 12679 ft 303 kts
2026-05-09 11:43 5.80895 -75.42116 12575 ft 291 kts
2026-05-09 11:43 5.82876 -75.42052 12494 ft 279 kts
2026-05-09 11:43 5.84766 -75.41993 12405 ft 265 kts
2026-05-09 11:43 5.86564 -75.41936 12308 ft 251 kts
2026-05-09 11:44 5.88257 -75.41884 12281 ft 233 kts
2026-05-09 11:44 5.89809 -75.41836 12161 ft 215 kts
2026-05-09 11:44 5.91250 -75.41866 12073 ft 200 kts 358°
2026-05-09 11:44 5.92590 -75.41971 11961 ft 188 kts 358°
2026-05-09 11:45 5.93852 -75.42061 11758 ft 175 kts 359°
2026-05-09 11:45 5.95031 -75.42118 11508 ft 170 kts
2026-05-09 11:45 5.96213 -75.42152 11185 ft 170 kts
2026-05-09 11:45 5.97403 -75.42174 10851 ft 172 kts
2026-05-09 11:46 5.98607 -75.42190 10468 ft 175 kts
2026-05-09 11:46 5.99827 -75.42203 10128 ft 175 kts
2026-05-09 11:46 6.01037 -75.42211 9758 ft 170 kts
2026-05-09 11:46 6.02179 -75.42220 9504 ft 159 kts
2026-05-09 11:47 6.03264 -75.42226 9293 ft 156 kts
2026-05-09 11:47 6.04354 -75.42233 9083 ft 156 kts
2026-05-09 11:47 6.05433 -75.42240 8886 ft 154 kts
2026-05-09 11:47 6.06502 -75.42247 8697 ft 154 kts
2026-05-09 11:48 6.07573 -75.42254 8503 ft 153 kts
2026-05-09 11:48 6.08631 -75.42261 8307 ft 151 kts
2026-05-09 11:48 6.09684 -75.42268 8115 ft 151 kts
2026-05-09 11:48 6.10739 -75.42275 7901 ft 151 kts
2026-05-09 11:49 6.11783 -75.42282 7683 ft 148 kts
2026-05-09 11:49 6.12800 -75.42289 7467 ft 145 kts
2026-05-09 11:49 6.13803 -75.42294 7247 ft 143 kts
2026-05-09 11:49 6.14791 -75.42296 7025 ft 140 kts 359°
2026-05-09 11:50 6.15742 -75.42300 6964 ft 128 kts 359°
2026-05-09 11:50 6.16438 -75.42308 6973 ft 71 kts 359°
2026-05-09 11:50 6.16841 -75.42314 6984 ft 48 kts 355°
2026-05-09 11:50 6.17082 -75.42402 6988 ft 17 kts 331°
2026-05-09 11:51 6.17157 -75.42441 6989 ft 13 kts 332°
2026-05-09 11:51 6.17185 -75.42520 6988 ft 14 kts 267°
2026-05-09 11:51 6.17208 -75.42614 6988 ft 15 kts 329°
2026-05-09 11:51 6.17277 -75.42642 6988 ft 3 kts 272°
2026-05-09 11:52 6.17260 -75.42674 6988 ft 7 kts 238°
2026-05-09 11:52 6.17239 -75.42718 6985 ft 0 kts 245°